Wind_Speed
15 12 11 11 11 14 15 16 16 19 23 26 28 28 29 29 29 28 27 28 28 27 27 29 27 27 29 31 40 52 57 56 52 52 47 48 49 48 63 46 48 50 41 38 40
16 9 9 8 8 8 11 13 14 15 16 19 23 26 28 28 28 28 27 27 29 29 28 29 29 28 30 31 34 43 56 56 53 48 51 45 45 52 55 51 46 51 49 41 38
19 8 8 6 6 5 6 8 10 13 15 16 17 19 22 26 27 28 28 27 27 29 29 29 30 30 31 33 33 34 43 50 53 58 50 47 47 40 51 69 48 54 52 45 42
27 15 4 6 5 5 5 5 7 10 12 14 16 18 19 21 26 26 28 29 28 27 28 29 30 31 33 33 36 36 36 43 56 55 56 51 45 46 42 54 58 55 50 48 47
30 25 5 3 5 5 6 7 7 8 9 10 12 15 18 21 23 25 28 30 29 28 27 28 30 30 32 33 35 35 39 39 44 48 54 55 50 48 49 51 69 61 55 51 52
33 27 17 7 6 7 8 7 7 8 9 10 12 13 15 19 21 24 26 29 31 31 29 29 30 30 31 32 32 36 37 38 42 43 48 55 55 54 52 46 38 70 63 57 57
35 30 22 14 6 8 9 11 10 9 9 10 11 12 15 17 20 23 24 26 29 32 33 32 31 31 30 32 32 32 32 35 39 38 41 49 53 54 53 47 39 57 67 63 60
33 31 28 22 17 8 7 11 13 13 13 14 14 13 14 15 17 20 22 25 29 30 31 34 34 33 33 32 32 32 32 32 37 36 35 38 41 50 50 49 46 44 71 66 64
31 31 27 25 24 20 12 8 10 12 13 15 16 17 17 17 18 19 20 22 25 29 32 33 33 36 35 34 34 33 31 33 37 33 33 33 36 45 43 47 47 42 54 68 67
31 29 28 25 23 21 21 17 13 8 10 13 16 19 20 20 20 20 20 21 22 24 26 28 33 35 35 36 34 38 34 36 35 36 33 34 34 35 37 42 42 42 46 55 69
29 28 27 26 25 23 21 18 15 12 12 12 15 18 20 22 23 23 23 23 23 23 24 24 27 29 35 36 38 39 38 38 38 39 35 36 35 34 35 37 39 41 43 42 64
28 27 26 25 23 23 21 19 17 14 13 12 12 13 15 17 20 23 25 27 26 26 25 25 26 30 29 31 32 34 38 38 41 41 41 39 38 36 35 37 37 38 41 43 44
24 25 25 23 22 21 21 20 19 17 15 12 14 15 15 17 19 21 23 25 27 28 27 27 30 29 29 29 29 31 33 37 37 40 39 41 40 41 39 39 40 40 40 43 45
23 22 22 22 22 21 20 20 20 19 18 17 17 17 17 19 20 20 22 24 26 26 30 28 30 28 28 28 29 30 35 34 34 34 33 37 34 38 36 39 41 43 45 47 49
22 21 21 21 20 20 21 20 20 20 20 20 21 21 21 20 21 22 22 22 22 25 24 27 31 28 27 29 31 30 32 33 32 33 33 32 34 33 32 36 39 41 43 45 49
23 21 21 19 20 20 21 20 20 21 21 20 21 22 24 24 24 24 23 22 23 25 26 23 25 27 28 30 30 33 33 32 31 31 31 30 32 21 31 30 35 39 41 43 45
25 21 20 20 19 20 20 21 21 21 23 23 23 23 24 25 26 24 24 25 24 25 26 25 27 28 28 32 31 32 32 27 24 27 19 33 29 27 30 30 34 37 40 41 42
24 23 22 21 20 20 21 22 21 22 23 24 25 26 26 26 28 28 27 24 25 24 26 27 27 27 26 31 27 29 32 27 26 17 17 34 31 33 24 29 35 39 41 43 45
23 23 23 23 22 21 23 24 23 24 25 26 27 27 29 28 28 31 30 28 27 24 24 25 28 33 28 27 32 27 30 32 34 31 33 30 28 24 28 28 33 35 39 44 48
24 22 22 23 23 23 24 24 25 25 27 27 28 28 30 32 31 32 32 32 29 25 22 23 24 30 30 27 26 27 31 32 30 31 28 24 22 19 27 25 31 35 41 41 42
25 24 23 23 23 24 25 26 26 27 28 29 30 32 32 33 33 32 33 32 31 26 24 23 22 20 30 31 32 31 34 34 29 27 25 23 16 24 24 30 32 34 37 39 40
27 26 23 23 24 25 25 28 28 29 31 33 35 36 36 34 32 33 31 29 28 28 25 22 21 20 22 20 28 29 29 28 26 25 25 27 23 27 23 27 29 32 35 38 41
28 27 25 24 24 25 26 28 29 31 33 37 40 41 40 35 33 32 28 26 25 25 22 15 16 16 18 20 19 23 24 24 24 27 27 28 22 20 26 27 29 32 36 38 41
28 27 25 24 23 25 26 28 32 33 36 40 43 44 42 36 30 29 27 24 22 22 19 21 18 17 18 18 20 23 24 24 27 31 28 27 24 27 27 31 36 36 38 42 46
29 28 28 26 24 25 27 30 33 36 38 41 45 44 40 31 25 22 22 20 19 18 18 18 15 17 18 23 28 24 22 24 27 25 30 27 29 29 32 35 39 42 45 42 47
30 29 28 29 25 26 29 31 32 35 40 42 44 44 39 27 19 17 16 14 13 15 16 12 12 13 14 19 21 21 18 22 26 29 32 33 32 32 34 40 44 46 49 55 58
28 28 28 29 25 25 28 31 33 36 38 42 42 38 31 21 15 10 8 11 13 13 13 12 13 14 13 17 18 17 18 20 23 26 31 32 33 36 38 41 44 48 53 55 58
Wind_Direction
314 288 295 276 262 251 247 249 249 248 246 247 247 247 248 249 249 249 250 250 249 251 253 250 244 244 248 253 244 233 234 235 234 234 238 239 244 235 222 226 235 234 220 221 219
339 284 289 297 275 260 248 245 248 248 248 249 249 248 247 248 248 248 249 249 250 250 253 253 250 246 244 246 248 239 239 238 239 243 238 245 243 240 230 221 229 232 226 215 212
2 317 268 286 291 268 260 250 248 249 249 249 251 251 250 248 248 248 248 249 249 248 250 250 250 248 248 243 244 245 246 242 242 243 245 246 246 250 234 224 222 227 222 211 208
17 2 272 266 295 281 264 262 262 260 259 257 257 256 254 253 250 250 249 248 250 250 249 249 248 248 250 249 246 243 243 242 243 243 243 246 248 250 244 231 217 220 214 209 207
22 23 20 326 284 301 280 268 264 265 265 269 270 267 264 259 256 252 249 249 249 249 251 250 250 250 249 250 252 251 247 240 244 244 244 243 247 251 250 239 221 215 213 205 205
28 29 36 37 5 306 300 283 276 277 276 273 273 274 273 267 262 258 255 251 249 249 249 248 250 252 252 251 251 251 253 250 245 245 243 243 246 249 252 240 237 218 211 203 204
28 33 34 38 19 9 329 288 280 282 277 281 282 281 279 274 266 264 259 257 253 249 248 248 247 248 250 250 250 252 251 253 250 246 246 244 245 249 252 251 257 228 216 207 204
28 30 35 35 32 353 312 346 283 274 282 283 283 279 282 279 274 270 264 259 256 253 250 248 246 247 248 249 250 251 250 252 250 249 246 245 245 246 249 252 249 243 211 212 207
22 27 31 33 33 30 24 338 333 276 282 290 287 287 284 281 281 279 274 269 264 261 258 254 250 247 247 249 250 250 252 248 257 250 248 244 243 249 244 247 249 252 227 211 208
16 20 23 27 32 29 26 26 21 339 299 295 294 290 284 285 285 283 282 279 274 269 266 262 257 253 250 249 251 251 245 251 251 251 249 245 244 245 242 240 242 246 249 228 214
11 14 17 18 19 20 23 24 21 7 346 322 302 292 287 282 281 282 282 279 279 277 271 268 263 257 251 249 249 251 252 252 253 254 250 250 244 241 243 239 237 235 241 247 224
8 8 11 11 11 11 11 9 7 2 354 337 325 317 308 298 289 282 278 277 276 273 269 265 261 257 256 254 252 252 252 252 251 251 253 253 252 248 244 243 243 236 235 236 241
6 5 6 7 5 2 1 359 356 353 348 345 333 320 313 304 298 291 282 276 271 269 265 259 258 257 255 255 253 252 250 252 251 252 252 252 254 252 249 247 247 246 240 238 237
355 1 0 3 1 356 351 348 347 345 343 336 331 330 324 318 310 306 298 286 280 278 264 259 254 253 253 255 253 254 251 252 254 254 251 250 247 251 252 252 248 245 242 241 240
343 348 356 356 356 352 348 342 338 337 337 334 332 326 320 318 312 309 307 291 284 276 273 262 255 252 251 253 252 251 254 253 253 254 255 256 256 251 246 248 249 250 246 243 242
338 339 344 349 350 348 345 341 335 332 330 327 325 324 321 316 311 310 307 299 286 278 273 274 271 260 247 249 252 252 253 254 255 256 256 253 256 259 252 245 245 247 251 250 245
330 335 338 340 343 344 342 340 333 327 324 320 318 317 316 312 309 306 302 298 289 278 275 274 266 272 264 246 246 250 253 255 260 259 253 253 249 246 261 256 253 251 250 249 252
328 329 331 334 338 341 340 339 332 328 319 317 315 313 311 310 307 305 301 295 291 277 271 260 262 274 265 254 240 251 246 246 250 242 239 253 254 258 262 261 261 260 258 256 254
328 323 323 328 331 338 339 335 332 328 321 317 314 313 310 307 305 303 299 292 288 286 272 264 268 262 263 252 250 254 255 246 248 252 252 251 261 259 263 265 262 261 262 264 264
330 324 323 325 327 333 338 336 332 328 323 320 315 315 311 307 305 300 296 294 287 283 278 263 263 254 263 252 240 249 249 251 247 249 255 256 254 266 260 263 275 273 271 268 269
331 327 321 324 326 330 336 337 335 331 326 322 319 316 311 305 302 296 292 289 286 284 278 276 273 260 256 257 251 257 253 246 240 249 253 255 251 256 266 266 278 286 283 285 282
330 327 321 321 324 327 334 335 336 333 331 329 325 320 313 305 299 293 292 287 287 283 281 281 278 270 255 241 242 240 239 244 242 251 250 253 251 265 269 275 281 287 289 287 281
326 328 321 319 323 327 330 332 335 334 334 331 328 324 317 307 300 292 289 287 283 280 277 275 281 278 278 271 256 243 240 245 249 248 249 256 254 273 282 281 286 288 289 292 288
330 328 324 317 318 324 329 332 335 337 336 334 331 326 319 313 301 292 289 284 280 278 274 274 273 264 265 207 233 229 238 246 249 250 259 259 252 275 274 279 286 288 287 287 283
329 329 326 322 317 321 327 331 336 337 339 337 334 328 323 318 307 297 289 286 282 277 274 274 276 264 250 231 236 239 247 248 252 256 260 267 266 272 279 280 284 288 292 287 288
327 328 325 322 320 320 323 329 335 338 339 338 336 332 333 328 318 299 300 287 292 301 291 274 275 267 241 237 245 245 250 257 258 263 268 275 278 281 280 282 288 284 291 293 291
323 323 323 323 320 318 322 328 335 338 340 341 341 339 342 342 344 342 301 300 302 297 291 283 267 264 234 238 250 256 257 259 262 265 271 277 281 281 282 285 292 298 300 291 284
Height
5740 5740 5740 5740 5740 5741 5743 5745 5747 5749 5751 5753 5755 5757 5760 5762 5764 5766 5767 5769 5770 5771 5772 5774 5777 5778 5780 5781 5783 5789 5788 5793 5800 5804 5809 5811 5813 5816 5820 5827 5829 5833 5836 5842 5848
5737 5736 5736 5737 5737 5738 5740 5741 5743 5745 5747 5749 5751 5752 5754 5756 5757 5759 5761 5762 5764 5766 5767 5768 5769 5771 5772 5774 5776 5779 5782 5788 5795 5798 5799 5804 5806 5807 5813 5818 5824 5826 5830 5834 5841
5735 5733 5733 5735 5735 5736 5737 5738 5740 5741 5743 5745 5746 5747 5749 5750 5751 5753 5755 5756 5758 5759 5761 5762 5763 5765 5766 5768 5770 5774 5775 5783 5786 5786 5792 5795 5797 5801 5807 5811 5815 5816 5819 5826 5833
5735 5731 5731 5733 5734 5735 5735 5736 5737 5739 5740 5741 5743 5743 5744 5745 5747 5747 5749 5750 5752 5753 5755 5755 5757 5758 5760 5762 5763 5766 5769 5771 5772 5778 5782 5787 5791 5791 5795 5801 5799 5807 5813 5817 5824
5737 5732 5731 5732 5733 5734 5735 5735 5736 5737 5737 5738 5739 5740 5740 5741 5740 5741 5742 5744 5745 5747 5749 5750 5751 5752 5753 5755 5756 5758 5759 5763 5765 5767 5773 5776 5780 5779 5781 5785 5788 5796 5803 5807 5813
5740 5735 5732 5733 5734 5734 5734 5735 5735 5735 5735 5736 5736 5736 5736 5736 5735 5735 5736 5737 5739 5741 5742 5744 5745 5746 5747 5748 5750 5749 5752 5755 5756 5759 5760 5765 5768 5767 5773 5777 5785 5788 5791 5797 5803
5744 5739 5736 5734 5734 5733 5734 5734 5734 5734 5734 5733 5733 5733 5733 5733 5731 5730 5730 5731 5732 5733 5735 5737 5738 5739 5741 5741 5742 5743 5745 5746 5749 5750 5751 5753 5757 5760 5762 5769 5774 5777 5783 5787 5793
5748 5743 5738 5736 5733 5732 5732 5732 5732 5732 5732 5731 5731 5730 5729 5728 5727 5726 5725 5725 5725 5725 5726 5729 5731 5732 5733 5735 5736 5737 5739 5739 5739 5743 5744 5746 5750 5748 5755 5759 5765 5765 5770 5779 5784
5750 5745 5741 5737 5735 5732 5730 5729 5728 5729 5729 5729 5728 5727 5726 5724 5723 5722 5721 5721 5720 5719 5720 5721 5723 5724 5727 5727 5729 5730 5732 5732 5730 5736 5736 5738 5739 5739 5747 5749 5753 5757 5764 5768 5774
5751 5746 5743 5739 5736 5733 5731 5728 5727 5727 5726 5725 5724 5725 5722 5721 5719 5718 5717 5716 5715 5714 5714 5714 5715 5716 5718 5720 5723 5720 5724 5724 5725 5727 5730 5731 5732 5734 5736 5740 5744 5749 5753 5760 5764
5751 5747 5743 5739 5736 5733 5730 5729 5728 5727 5724 5722 5720 5718 5716 5715 5713 5712 5711 5710 5709 5709 5708 5707 5708 5708 5708 5710 5712 5713 5715 5717 5717 5718 5722 5724 5725 5727 5728 5732 5737 5742 5743 5748 5754
5751 5747 5743 5740 5736 5733 5730 5728 5726 5725 5722 5719 5717 5714 5712 5710 5708 5706 5705 5704 5703 5702 5702 5702 5700 5699 5699 5701 5702 5704 5706 5707 5708 5710 5712 5714 5717 5720 5722 5724 5728 5732 5735 5738 5743
5750 5747 5743 5738 5735 5732 5729 5726 5723 5721 5718 5716 5713 5711 5708 5706 5703 5700 5698 5696 5695 5693 5693 5693 5692 5692 5693 5693 5694 5695 5696 5696 5700 5701 5704 5706 5709 5709 5713 5714 5717 5721 5725 5727 5730
5750 5745 5741 5737 5735 5731 5728 5724 5720 5717 5715 5713 5709 5706 5703 5699 5697 5694 5691 5689 5687 5686 5685 5685 5684 5685 5686 5686 5687 5688 5686 5688 5690 5692 5695 5697 5701 5700 5702 5703 5706 5709 5712 5714 5717
5748 5744 5739 5734 5731 5728 5725 5721 5718 5715 5713 5710 5705 5701 5698 5695 5691 5688 5685 5682 5680 5678 5679 5677 5676 5677 5677 5677 5678 5679 5679 5680 5682 5684 5685 5688 5690 5691 5694 5693 5693 5694 5699 5704 5708
5744 5741 5737 5733 5729 5725 5721 5718 5715 5713 5708 5705 5701 5696 5692 5689 5685 5681 5678 5676 5674 5671 5670 5670 5668 5668 5669 5668 5669 5669 5671 5673 5675 5676 5679 5679 5680 5684 5681 5685 5686 5687 5689 5694 5701
5740 5737 5733 5729 5725 5721 5717 5714 5712 5707 5704 5700 5696 5692 5688 5683 5679 5676 5672 5669 5667 5665 5663 5663 5661 5661 5660 5660 5661 5661 5664 5667 5670 5670 5674 5670 5673 5675 5672 5673 5676 5679 5683 5687 5690
5736 5733 5729 5725 5721 5717 5713 5710 5706 5702 5697 5693 5690 5686 5682 5678 5673 5669 5665 5663 5659 5657 5656 5656 5656 5653 5654 5654 5655 5655 5655 5658 5659 5665 5667 5662 5665 5662 5665 5665 5666 5669 5672 5677 5680
5732 5727 5724 5721 5717 5713 5710 5705 5701 5696 5692 5687 5683 5679 5674 5671 5666 5661 5657 5655 5652 5650 5648 5647 5646 5644 5645 5646 5648 5650 5649 5649 5649 5653 5654 5657 5657 5658 5657 5655 5654 5657 5661 5664 5667
5727 5723 5720 5716 5713 5709 5705 5700 5694 5690 5685 5681 5676 5673 5667 5661 5658 5653 5648 5645 5641 5640 5639 5638 5638 5637 5636 5638 5640 5640 5641 5642 5642 5645 5647 5650 5651 5651 5649 5648 5642 5644 5646 5650 5652
5721 5718 5715 5712 5708 5705 5700 5695 5689 5685 5679 5675 5669 5664 5659 5654 5648 5644 5639 5635 5632 5631 5630 5629 5629 5631 5628 5629 5631 5632 5631 5632 5634 5637 5638 5641 5647 5641 5641 5639 5637 5635 5636 5636 5636
5716 5713 5709 5706 5704 5699 5695 5690 5685 5678 5673 5667 5662 5655 5649 5643 5638 5634 5630 5626 5624 5623 5623 5622 5620 5620 5620 5620 5619 5621 5624 5625 5627 5631 5632 5631 5636 5633 5631 5631 5630 5627 5625 5624 5624
5713 5708 5704 5702 5698 5694 5689 5684 5679 5672 5666 5659 5653 5646 5638 5632 5627 5623 5620 5617 5615 5614 5615 5616 5615 5615 5614 5614 5613 5613 5616 5618 5621 5622 5623 5624 5628 5624 5621 5620 5619 5618 5615 5612 5609
5708 5705 5701 5696 5693 5690 5684 5679 5672 5667 5660 5652 5645 5636 5627 5620 5615 5612 5609 5608 5607 5606 5608 5608 5609 5609 5609 5611 5608 5608 5611 5613 5614 5614 5616 5616 5618 5616 5614 5611 5608 5606 5605 5602 5598
5703 5699 5695 5691 5687 5683 5679 5673 5667 5661 5654 5646 5637 5628 5618 5611 5605 5603 5601 5601 5601 5600 5602 5601 5602 5601 5601 5600 5601 5604 5606 5606 5606 5608 5606 5609 5608 5607 5604 5600 5596 5593 5591 5589 5584
5697 5692 5689 5685 5681 5677 5672 5669 5663 5656 5649 5640 5630 5619 5610 5604 5600 5597 5597 5595 5596 5596 5595 5596 5596 5596 5596 5596 5597 5600 5602 5600 5601 5601 5599 5598 5598 5596 5593 5588 5585 5581 5578 5572 5565
5693 5688 5683 5679 5676 5672 5668 5663 5658 5651 5644 5634 5624 5614 5606 5600 5596 5594 5594 5594 5594 5593 5592 5592 5592 5592 5594 5593 5594 5597 5597 5596 5594 5594 5592 5590 5588 5585 5582 5577 5574 5570 5564 5555 5546